Location: Podia
(1.5569°N, 32.3469°E)
Time: 17:17:14
(UTC+00:00)

Geosat - Pass Details

Date: 01 June 2020
Orbit: 763 x 766 km, 108.0° (Epoch: 04 July)

Event Time Altitude Azimuth Distance (km) Brightness Sun altitude
Exits shadow 16:23:36 - 145° (SE) 2,834 6.4 -7.5°
Reaches altitude 10° 16:24:59 10° 141° (SE) 2,294 5.9 -7.8°
Maximum altitude 16:29:46 47° 68° (ENE) 1,004 4.3 -8.9°
Drops below altitude 10° 16:34:32 10° 355° (N) 2,288 6.8 -10.0°
Sets 16:36:53 0° 349° (N) 3,211 7.7 -10.6°
